EN

Hourly Weather Alkmaar

Today, 18 January, Monday

Time Temperature Precipitation Wind Pressure Humidity
00:00 +2°C° 0 mm 5 mps 766 mmHg 90%
01:00 +2°C° 0 mm 5 mps 766 mmHg 90%
02:00 +2°C° 0 mm 6 mps 765 mmHg 90%
03:00 +2°C° 0 mm 6 mps 765 mmHg 91%
04:00 +3°C° 0 mm 6 mps 765 mmHg 90%
05:00 +3°C° 0 mm 6 mps 765 mmHg 89%
06:00 +3°C° 0 mm 6 mps 765 mmHg 88%
07:00 +3°C° 0 mm 7 mps 764 mmHg 87%
08:00 +3°C° 0 mm 7 mps 764 mmHg 86%
09:00 +4°C° 0 mm 7 mps 764 mmHg 84%
10:00 +4°C° 0 mm 8 mps 764 mmHg 82%
11:00 +4°C° 0 mm 8 mps 764 mmHg 81%
12:00 +5°C° 0 mm 8 mps 763 mmHg 79%
13:00 +4°C° 0.1 mm 8 mps 763 mmHg 80%
14:00 +4°C° 0.1 mm 8 mps 762 mmHg 80%
15:00 +4°C° 0.1 mm 8 mps 762 mmHg 81%
16:00 +4°C° 0.1 mm 7 mps 762 mmHg 81%
17:00 +4°C° 0.1 mm 7 mps 761 mmHg 81%
18:00 +4°C° 0.1 mm 7 mps 761 mmHg 81%
19:00 +4°C° 0.1 mm 7 mps 761 mmHg 81%
20:00 +4°C° 0.1 mm 7 mps 760 mmHg 81%
21:00 +4°C° 0.1 mm 7 mps 760 mmHg 81%
22:00 +4°C° 0.5 mm 8 mps 759 mmHg 84%
23:00 +3°C° 0.5 mm 9 mps 759 mmHg 88%

Tomorrow, 19 January, Tuesday

Time Temperature Precipitation Wind Pressure Humidity
00:00 +3°C° 0.5 mm 9 mps 758 mmHg 91%
01:00 +3°C° 0.9 mm 10 mps 757 mmHg 90%
02:00 +3°C° 0.9 mm 10 mps 755 mmHg 90%
03:00 +3°C° 0.9 mm 11 mps 754 mmHg 89%
04:00 +5°C° 1.5 mm 10 mps 753 mmHg 91%
05:00 +5°C° 1.5 mm 10 mps 752 mmHg 92%
06:00 +6°C° 1.5 mm 10 mps 751 mmHg 94%
07:00 +6°C° 1.3 mm 10 mps 750 mmHg 94%
08:00 +7°C° 1.3 mm 9 mps 750 mmHg 94%
09:00 +7°C° 1.3 mm 9 mps 749 mmHg 94%
10:00 +7°C° 0.7 mm 11 mps 749 mmHg 90%
11:00 +8°C° 0.7 mm 12 mps 749 mmHg 86%
12:00 +8°C° 0.7 mm 14 mps 750 mmHg 82%
13:00 +8°C° 0 mm 13 mps 749 mmHg 82%
14:00 +8°C° 0 mm 12 mps 749 mmHg 82%
15:00 +8°C° 0 mm 12 mps 749 mmHg 82%
16:00 +7°C° 0.3 mm 12 mps 749 mmHg 84%
17:00 +7°C° 0.3 mm 13 mps 749 mmHg 86%
18:00 +6°C° 0.3 mm 14 mps 749 mmHg 87%
19:00 +6°C° 0.4 mm 14 mps 748 mmHg 86%
20:00 +6°C° 0.4 mm 15 mps 748 mmHg 85%
21:00 +6°C° 0.4 mm 15 mps 747 mmHg 83%
22:00 +6°C° 0.1 mm 15 mps 747 mmHg 83%
23:00 +6°C° 0.1 mm 15 mps 747 mmHg 83%

Day after tomorrow, 20 January, Wednesday

Time Temperature Precipitation Wind Pressure Humidity
00:00 +6°C° 0.1 mm 15 mps 747 mmHg 82%
01:00 +6°C° 0.2 mm 15 mps 746 mmHg 82%
02:00 +6°C° 0.2 mm 14 mps 746 mmHg 83%
03:00 +6°C° 0.2 mm 14 mps 745 mmHg 83%
04:00 +6°C° 0.6 mm 14 mps 745 mmHg 83%
05:00 +6°C° 0.6 mm 14 mps 745 mmHg 84%
06:00 +6°C° 0.6 mm 14 mps 744 mmHg 85%
07:00 +6°C° 0.2 mm 14 mps 744 mmHg 83%
08:00 +6°C° 0.2 mm 14 mps 744 mmHg 81%
09:00 +6°C° 0.2 mm 14 mps 744 mmHg 79%
10:00 +5°C° 0 mm 13 mps 744 mmHg 79%
11:00 +5°C° 0 mm 13 mps 744 mmHg 79%
12:00 +5°C° 0 mm 12 mps 744 mmHg 79%
13:00 +6°C° 0 mm 11 mps 744 mmHg 77%
14:00 +6°C° 0 mm 11 mps 744 mmHg 75%
15:00 +6°C° 0 mm 10 mps 743 mmHg 72%
16:00 +6°C° 0 mm 10 mps 743 mmHg 71%
17:00 +5°C° 0 mm 10 mps 743 mmHg 70%
18:00 +5°C° 0 mm 10 mps 743 mmHg 68%
19:00 +5°C° 0.1 mm 10 mps 742 mmHg 71%
20:00 +6°C° 0.1 mm 10 mps 742 mmHg 73%
21:00 +6°C° 0.1 mm 10 mps 741 mmHg 76%
22:00 +6°C° 0 mm 10 mps 740 mmHg 75%
23:00 +6°C° 0 mm 11 mps 740 mmHg 75%

21 January, Thursday

Time Temperature Precipitation Wind Pressure Humidity
00:00 +6°C° 0 mm 11 mps 739 mmHg 75%
01:00 +6°C° 0 mm 11 mps 738 mmHg 75%
02:00 +7°C° 0 mm 12 mps 737 mmHg 76%
03:00 +7°C° 0 mm 12 mps 735 mmHg 76%
04:00 +5°C° 0.8 mm 13 mps 735 mmHg 76%
05:00 +4°C° 0.8 mm 14 mps 735 mmHg 76%
06:00 +3°C° 0.8 mm 14 mps 735 mmHg 76%
07:00 +3°C° 0 mm 14 mps 736 mmHg 72%
08:00 +3°C° 0 mm 13 mps 737 mmHg 68%
09:00 +3°C° 0 mm 12 mps 738 mmHg 64%
10:00 +4°C° 0 mm 12 mps 738 mmHg 65%
11:00 +5°C° 0 mm 13 mps 738 mmHg 65%
12:00 +5°C° 0 mm 13 mps 739 mmHg 65%
13:00 +5°C° 0 mm 13 mps 739 mmHg 66%
14:00 +5°C° 0 mm 13 mps 739 mmHg 67%
15:00 +4°C° 0 mm 13 mps 739 mmHg 68%
16:00 +4°C° 0.1 mm 13 mps 738 mmHg 70%
17:00 +4°C° 0.1 mm 12 mps 738 mmHg 71%
18:00 +4°C° 0.1 mm 12 mps 738 mmHg 72%
19:00 +4°C° 0.1 mm 12 mps 738 mmHg 72%
20:00 +4°C° 0.1 mm 12 mps 738 mmHg 73%
21:00 +4°C° 0.1 mm 11 mps 737 mmHg 73%
22:00 +3°C° 0 mm 11 mps 737 mmHg 75%
23:00 +3°C° 0 mm 10 mps 736 mmHg 77%

22 January, Friday

Time Temperature Precipitation Wind Pressure Humidity
00:00 +3°C° 0 mm 10 mps 736 mmHg 79%
01:00 +3°C° 0 mm 10 mps 736 mmHg 78%
02:00 +3°C° 0 mm 10 mps 736 mmHg 76%
03:00 +3°C° 0 mm 10 mps 736 mmHg 75%
04:00 +3°C° 0 mm 10 mps 736 mmHg 73%
05:00 +3°C° 0 mm 11 mps 736 mmHg 71%
06:00 +3°C° 0 mm 11 mps 737 mmHg 70%
07:00 +3°C° 0 mm 11 mps 737 mmHg 70%
08:00 +3°C° 0 mm 12 mps 737 mmHg 69%
09:00 +3°C° 0 mm 12 mps 737 mmHg 69%
10:00 +3°C° 0 mm 12 mps 738 mmHg 68%
11:00 +3°C° 0 mm 12 mps 738 mmHg 68%
12:00 +4°C° 0 mm 12 mps 739 mmHg 67%
13:00 +3°C° 0 mm 11 mps 739 mmHg 67%
14:00 +3°C° 0 mm 11 mps 740 mmHg 68%
15:00 +3°C° 0 mm 11 mps 740 mmHg 68%
16:00 +3°C° 0 mm 10 mps 740 mmHg 69%
17:00 +3°C° 0 mm 10 mps 741 mmHg 70%
18:00 +3°C° 0 mm 9 mps 741 mmHg 70%
19:00 +3°C° 0 mm 9 mps 741 mmHg 71%
20:00 +2°C° 0 mm 9 mps 742 mmHg 72%
21:00 +2°C° 0 mm 8 mps 742 mmHg 73%
22:00 +2°C° 0 mm 8 mps 742 mmHg 74%
23:00 +2°C° 0 mm 8 mps 742 mmHg 75%

23 January, Saturday

Time Temperature Precipitation Wind Pressure Humidity
00:00 +2°C° 0 mm 8 mps 742 mmHg 76%
01:00 +1°C° 0 mm 8 mps 742 mmHg 76%
02:00 +1°C° 0 mm 8 mps 743 mmHg 76%
03:00 +1°C° 0 mm 8 mps 743 mmHg 76%
04:00 +1°C° 0 mm 8 mps 743 mmHg 75%
05:00 +1°C° 0 mm 8 mps 744 mmHg 74%
06:00 +1°C° 0 mm 9 mps 744 mmHg 74%
07:00 +1°C° 0.6 mm 9 mps 745 mmHg 80%
08:00 +1°C° 0.6 mm 9 mps 745 mmHg 87%
09:00 0°C° 0.6 mm 9 mps 746 mmHg 94%
10:00 +1°C° 0.4 mm 8 mps 747 mmHg 86%
11:00 +2°C° 0.4 mm 8 mps 748 mmHg 78%
12:00 +4°C° 0.4 mm 7 mps 748 mmHg 71%
13:00 +3°C° 0.1 mm 7 mps 749 mmHg 72%
14:00 +3°C° 0.1 mm 6 mps 749 mmHg 73%
15:00 +3°C° 0.1 mm 6 mps 750 mmHg 74%
16:00 +2°C° 0 mm 6 mps 750 mmHg 75%
17:00 +1°C° 0 mm 5 mps 751 mmHg 76%
18:00 +1°C° 0 mm 5 mps 751 mmHg 77%
19:00 0°C° 0 mm 4 mps 751 mmHg 78%
20:00 0°C° 0 mm 4 mps 751 mmHg 78%
21:00 +1°C° 0 mm 3 mps 752 mmHg 79%
22:00 +1°C° 0 mm 3 mps 752 mmHg 78%
23:00 0°C° 0 mm 3 mps 752 mmHg 77%
Show more